Starlink 30088

operational
NORAD ID: 57462 Int'l Des: 2023-107 Owner: SPXS Country: US Constellation: starlink
LEOCIRCULAR

About Starlink 30088

Description loading...

Live Position

Loading 3D Globe...

Upcoming Passes

Altitude History

Altitude vs Time

uPlot chart will show altitude changes over time

Two-Line Element Set

1 57462U 23107F 25305.52917833 -.00000539 00000-0 -24801-4 0 9998
2 57462 43.0051 315.4447 0001343 270.8295 89.2393 15.02532486125830
Epoch: Nov 1, 2025 • Age: 18 hours

Current Status

Altitude 562.6 km
Velocity 7.59 km/s
Sub-Earth Point 40.36°N, 76.41°W
Launch Date Jul 28, 2023
Age 2.2 years
Type internet

Technical Details

Classification Payload
Mass 730.00 kg
Dry Mass 700.00 kg
Total Mass 730.00 kg
Length 0.30 m
Diameter 4.10 m
Span 29.00 m
Shape Box + pan
Manufacturer SPXS
Bus Type Starlink V2M
Phase Status In Orbit
Owner/State SPXS/US

Large Constellations

Loading constellations...